カタログに戻る

STARLINK-6039

運用中通信SSO
NORAD 56319·PAYLOAD·🇺🇸 United States

打ち上げ Apr 27, 2023 から Vandenberg Space Force Base

Loading…

次のパス (今後24時間)

TLE

最新Source: CelesTrak SupGP

元期: Sep 15, 2026, 01:52 UTC

1 56319C 23058C   26258.07826389  .00551820  00000+0  33087-1 0  2588
2 56319  97.2849 252.2797 0001639  82.8566  96.5344 15.10773119    10

AllMySatでSTARLINK-6039をリアルタイム追跡

Download on the App Store